RH
11 10 10 10 10 9 9 10 9 9 9 9 9 9 8 8 8 8 7 7 7 7 6 6 6 5 5 5 5 4 4 4 4 4 4 3 4 3 4 4 3 4 5 5 6 10 21 29 32 29 24 25 24 22 20 12 36 81 94 95 101 102 100 101 104 98 83 66 63 71 69 58 54 66 86 89 79 69 62 60 58 57 61 66 72
13 13 13 12 12 11 11 11 11 11 11 10 10 10 10 10 9 9 8 8 8 7 7 6 6 6 6 5 5 5 5 4 4 4 4 3 4 3 3 4 4 4 3 4 5 4 8 16 27 34 31 27 26 25 25 15 23 65 96 98 97 101 101 101 102 102 95 75 69 85 91 84 80 81 90 95 91 82 73 71 72 68 64 63 66
16 15 15 14 14 14 13 13 13 13 13 12 12 11 11 11 10 10 10 9 9 8 8 8 7 7 6 6 6 6 5 5 5 4 4 4 4 4 3 3 3 4 4 3 4 5 4 6 12 25 34 34 29 26 28 23 15 37 80 100 100 100 101 101 101 102 102 90 78 87 98 100 101 97 95 94 92 89 82 78 83 86 79 74 72
18 18 17 17 16 16 16 16 16 15 15 14 13 13 12 12 11 11 11 11 11 10 10 9 9 8 8 7 7 7 7 6 6 5 5 5 4 4 4 4 4 3 4 4 4 4 4 5 5 9 23 34 36 30 27 29 21 16 39 74 95 101 100 100 100 100 101 98 88 82 87 96 101 101 98 95 95 94 88 81 81 88 90 88 86
20 20 20 19 19 19 19 18 18 17 17 16 15 15 14 14 13 13 13 13 12 12 12 11 11 10 9 10 9 8 8 7 7 7 7 7 6 5 4 4 4 4 4 4 4 4 3 4 5 4 8 20 35 38 31 28 29 21 23 57 91 99 99 100 100 102 101 99 100 92 85 84 84 92 100 99 99 96 90 86 81 86 96 97 94
21 22 22 22 22 22 21 21 21 20 19 18 17 17 16 15 15 15 15 15 15 14 14 13 13 13 12 11 11 10 10 9 9 8 8 9 7 7 6 5 5 4 4 4 4 5 4 4 5 5 4 7 20 36 39 32 28 28 28 55 96 104 99 102 99 101 103 98 100 101 95 87 77 83 92 93 97 98 90 85 82 87 99 102 97
23 24 24 24 24 24 24 24 23 22 21 20 20 19 18 18 17 17 17 17 17 16 16 16 15 15 14 14 14 13 12 11 11 10 10 10 10 8 7 6 6 5 5 5 5 5 5 5 5 6 6 5 9 22 38 40 32 29 28 39 73 90 91 102 101 97 104 100 97 100 100 99 94 91 91 89 93 99 96 88 85 90 98 102 100
24 25 25 25 25 25 25 26 26 25 24 23 23 22 21 20 19 19 20 20 20 19 19 19 18 18 17 17 17 16 15 14 12 13 12 11 11 11 10 8 6 7 7 7 7 6 5 5 6 7 10 9 8 11 27 42 39 32 29 28 55 78 79 91 103 99 101 101 99 100 99 99 102 100 99 98 94 95 100 97 91 94 99 101 101
26 26 27 27 27 27 27 28 28 27 27 26 26 26 24 23 22 21 22 22 22 23 22 22 22 21 21 20 20 19 18 17 15 14 14 13 13 12 12 11 8 7 8 8 8 8 7 6 6 8 14 16 14 10 16 34 44 39 31 28 53 87 89 87 98 100 100 101 100 100 100 100 100 100 100 101 99 98 100 99 96 96 100 100 101
28 28 29 29 29 30 30 30 31 30 30 30 30 29 28 26 25 24 25 25 25 26 26 26 25 25 24 24 24 23 22 20 18 17 15 15 15 14 14 13 12 9 8 10 10 10 9 8 7 7 14 23 25 20 14 24 42 47 39 28 37 68 88 96 102 99 98 101 101 100 99 100 100 100 101 100 100 101 101 100 97 94 94 96 98
31 31 31 32 32 32 32 32 33 33 33 34 33 33 31 30 28 27 28 28 29 29 29 29 29 29 28 27 27 27 26 24 22 20 18 17 17 16 16 15 15 14 11 10 11 13 12 10 10 7 10 23 35 37 27 22 34 50 51 37 29 37 55 82 100 101 100 99 99 100 100 100 101 100 101 101 99 101 101 102 100 95 91 93 99
36 35 34 35 35 35 35 35 36 37 37 37 37 37 35 34 32 31 31 31 31 32 33 33 32 32 31 31 31 30 30 29 27 24 21 21 20 19 19 18 18 17 15 13 11 13 15 13 12 10 9 18 36 51 49 36 32 45 57 50 37 31 35 62 88 92 97 102 98 99 101 99 101 101 99 100 100 100 100 101 102 100 93 90 95
41 40 39 38 39 38 38 39 39 40 41 41 43 43 40 39 37 36 36 35 35 35 36 36 36 35 34 34 34 34 34 33 31 28 25 24 23 22 22 22 21 20 18 16 14 13 16 17 15 13 12 14 29 52 66 62 47 42 56 61 49 35 33 60 90 86 85 100 101 98 101 99 100 102 100 99 100 100 100 99 100 102 99 94 94
45 45 44 43 42 41 41 41 42 43 44 46 49 48 46 43 42 41 41 41 40 40 40 40 40 39 38 37 36 36 37 37 35 32 29 27 26 25 25 26 25 24 22 20 18 15 15 18 18 16 14 13 21 43 66 80 75 58 55 64 64 49 32 46 85 96 87 94 101 99 100 99 99 101 101 100 100 100 100 99 99 101 101 100 99
48 49 50 48 46 45 45 46 46 46 47 49 52 53 50 47 47 47 48 47 46 46 45 45 44 43 42 41 40 39 40 40 38 34 31 30 29 28 29 29 30 28 26 24 22 19 16 16 19 18 16 14 15 30 55 78 93 87 72 69 71 66 45 35 62 95 99 95 100 102 100 99 99 100 101 101 100 101 102 101 102 104 103 102 101
52 53 55 54 52 50 50 51 50 49 49 52 55 56 53 51 53 54 54 53 52 51 49 48 48 48 47 45 44 44 44 44 41 37 34 32 32 33 33 34 34 33 31 29 25 24 20 16 18 19 19 18 13 17 38 64 89 100 94 86 82 79 64 41 42 75 100 101 99 100 101 100 99 99 100 101 100 101 101 101 101 102 102 102 102
55 57 59 59 59 56 55 55 54 52 52 55 57 57 54 56 58 59 58 57 56 55 53 52 51 51 50 50 49 48 50 50 46 40 35 34 35 37 39 40 40 39 36 34 30 27 25 20 18 19 19 20 18 13 20 43 72 95 101 98 96 93 83 62 43 53 80 97 101 101 100 100 100 99 100 101 101 101 100 100 100 97 96 98 99
59 61 63 65 66 63 61 60 59 57 56 57 57 56 57 60 63 62 61 60 59 57 55 54 53 54 53 53 53 54 56 55 49 41 36 35 36 39 43 47 49 48 44 40 37 32 30 26 21 20 20 19 19 17 13 22 47 78 98 101 99 100 98 85 63 48 52 68 86 99 101 100 100 99 99 100 101 101 101 100 100 99 97 97 98
64 67 70 73 74 71 67 66 66 64 61 60 57 57 61 65 66 66 64 63 61 59 57 56 56 57 56 55 56 59 62 59 49 39 34 32 34 39 46 53 58 59 55 48 44 39 36 31 25 22 22 20 19 19 15 14 25 51 82 98 101 100 101 100 88 69 52 44 58 88 102 99 100 101 99 100 100 101 101 100 101 101 99 99 99
72 76 79 81 81 78 74 72 72 71 66 61 58 61 66 68 69 69 68 67 64 61 60 60 61 61 60 59 59 63 65 59 46 35 30 29 32 39 49 61 67 69 66 58 51 48 44 39 30 24 24 23 20 19 18 14 15 28 55 83 99 101 99 101 100 92 77 56 54 83 103 101 99 101 100 100 99 100 101 101 100 100 100 100 100
81 86 88 89 88 85 80 77 79 77 71 64 63 66 69 71 72 72 71 69 66 64 63 64 65 64 64 62 62 65 63 51 36 28 26 27 34 44 55 68 77 79 76 68 59 55 53 49 37 26 25 25 21 19 19 17 14 17 32 57 84 100 101 100 100 100 97 83 68 76 95 101 101 100 99 100 99 99 100 101 101 100 100 100 100
91 95 95 96 94 89 84 82 83 81 76 71 70 72 72 74 75 74 74 72 70 69 68 69 69 68 68 65 65 66 56 37 25 21 21 27 38 52 62 72 80 85 83 75 65 59 61 59 43 29 27 27 21 17 17 18 15 13 20 35 59 85 98 100 100 100 101 100 90 81 83 92 100 102 100 99 100 100 100 100 100 100 101 100 100
100 101 101 101 96 90 88 87 87 85 82 79 78 77 76 78 80 79 78 77 76 74 73 74 73 71 70 67 68 66 46 26 21 19 17 25 39 55 66 72 78 85 85 80 70 63 66 65 46 32 32 27 18 14 14 17 17 13 13 22 38 62 84 97 100 100 100 101 101 96 89 88 94 101 102 100 100 100 100 100 100 100 100 100 100
103 103 103 103 97 93 94 92 90 89 87 85 83 81 82 84 85 84 84 84 82 79 79 78 75 75 72 70 72 62 36 20 19 17 16 23 36 53 67 75 81 85 85 81 71 66 72 67 45 35 36 27 15 12 12 13 17 15 12 14 23 39 61 82 95 99 100 100 100 101 100 96 94 97 101 101 100 100 101 101 100 100 100 100 100
103 102 103 103 97 96 97 95 94 93 91 90 88 86 88 89 88 88 89 89 86 83 84 81 78 78 74 74 74 54 27 18 19 16 17 20 30 48 65 78 85 84 81 78 70 69 76 66 44 40 40 25 14 15 14 11 14 15 13 11 15 25 40 60 80 93 98 100 100 100 101 101 99 99 100 101 100 100 100 101 100 100 100 100 100
103 101 102 102 98 99 100 98 98 99 97 96 94 94 94 92 90 92 93 92 89 88 87 81 81 81 76 77 74 45 20 18 18 16 19 19 25 39 53 67 77 79 77 74 70 75 77 61 46 47 41 22 17 21 19 13 12 13 14 11 11 17 26 39 58 78 90 97 100 101 100 100 100 100 101 101 101 102 101 101 101 101 100 100 100
101 101 102 102 101 102 102 101 101 101 101 100 99 99 96 92 91 94 96 95 94 92 86 83 84 81 77 80 68 34 17 19 18 17 20 20 23 31 41 56 68 72 72 71 74 77 70 56 52 52 38 20 19 27 25 17 13 12 13 12 10 12 18 26 38 55 74 87 95 99 100 101 100 100 101 101 103 103 102 101 100 100 101 100 99
100 101 102 102 103 103 103 102 101 102 102 101 100 99 95 93 95 97 98 97 96 93 87 86 87 80 79 82 59 25 17 20 18 20 22 22 25 28 36 49 58 63 66 69 72 69 61 58 58 50 33 20 21 29 30 22 15 12 12 12 11 10 13 20 26 36 52 69 83 92 97 100 101 101 100 101 102 102 101 101 101 100 100 100 100
101 103 102 102 103 103 102 102 101 101 102 100 101 99 96 96 98 99 102 100 97 94 89 90 87 78 81 79 47 20 19 21 19 22 24 25 28 29 34 43 49 55 59 61 61 61 62 63 57 42 28 21 23 30 33 26 17 13 12 12 12 12 13 17 21 25 34 48 63 77 87 94 98 101 101 101 101 101 100 100 100 101 101 100 100
104 104 103 102 103 102 102 102 101 101 101 100 101 100 99 100 100 102 105 102 99 95 91 90 84 78 83 71 37 18 21 21 21 24 25 28 31 31 34 40 44 49 52 55 59 65 67 61 49 35 24 21 27 32 34 30 20 13 12 12 12 13 16 19 20 21 24 32 44 58 71 82 90 96 100 101 101 100 100 100 100 100 101 100 100
104 103 102 102 102 101 101 101 101 101 100 100 101 100 101 101 101 105 106 102 98 95 91 88 80 78 83 62 28 20 23 22 23 26 27 32 35 35 37 38 42 47 51 57 63 67 65 55 42 31 22 22 30 35 34 31 23 15 12 13 13 14 18 22 24 23 21 22 29 40 53 66 77 85 92 98 101 101 100 100 100 100 100 100 100
103 101 101 101 101 101 102 101 100 101 100 100 100 100 101 100 102 105 102 98 97 93 90 86 78 82 81 52 24 22 25 23 26 28 30 35 37 39 40 40 42 46 50 56 61 62 61 54 41 29 21 24 32 37 35 32 25 17 12 12 15 17 20 25 27 26 23 20 21 26 35 48 60 72 81 87 94 99 101 101 101 101 101 101 100
101 100 100 101 101 103 103 101 100 101 101 101 101 100 99 100 102 102 98 97 95 90 89 83 80 86 76 42 23 26 26 25 29 30 33 38 40 42 44 44 44 45 48 52 56 56 57 55 46 31 22 26 34 38 36 32 26 19 13 12 15 18 22 27 29 28 26 22 19 19 23 31 42 55 66 75 82 89 95 99 102 103 102 101 100
101 100 101 103 104 104 104 103 102 102 101 100 98 98 98 99 101 99 97 96 91 89 88 83 85 90 67 34 25 29 28 29 32 33 36 39 41 45 48 49 48 49 49 51 52 52 53 55 52 38 24 26 36 39 37 33 26 19 14 12 15 19 22 27 29 28 26 23 20 18 17 20 27 37 48 61 70 76 83 90 95 99 101 101 101
103 103 103 103 103 103 103 101 98 97 97 96 96 97 99 100 100 99 97 94 90 91 89 85 91 88 57 30 30 32 31 34 36 37 41 42 43 47 51 53 54 54 54 54 53 53 53 54 56 47 30 26 35 41 38 33 27 19 14 13 13 18 22 25 28 28 25 23 21 19 17 16 17 22 30 42 54 63 70 76 83 89 93 97 100
103 103 101 101 99 97 96 93 92 93 95 97 98 99 100 99 98 98 96 93 94 95 90 91 97 81 46 32 36 35 34 39 41 43 46 46 48 51 53 55 57 59 61 59 56 55 55 56 58 55 40 28 33 42 40 35 28 19 14 13 12 18 23 24 27 27 25 24 22 19 19 17 16 16 18 24 33 44 54 61 67 74 80 86 92
102 102 100 100 97 93 92 91 94 98 99 100 100 100 99 97 97 98 97 97 99 96 91 97 96 69 41 38 41 39 40 44 46 49 52 53 54 56 56 56 56 60 64 64 61 59 57 57 59 61 51 35 32 41 43 38 30 19 13 13 13 17 23 25 27 28 27 25 23 21 20 20 18 17 16 17 20 27 37 46 52 58 64 71 77
103 102 100 100 98 96 97 97 99 101 100 101 101 99 98 97 98 101 100 100 100 95 95 101 88 58 43 46 46 44 47 51 53 57 60 61 63 63 61 59 58 59 63 66 68 65 62 60 60 63 61 45 33 38 44 41 33 22 14 12 13 16 23 27 28 29 29 28 26 24 23 23 22 21 19 18 16 17 23 30 38 45 50 55 60
103 102 100 101 100 100 101 100 100 101 100 101 101 100 99 99 100 101 100 101 99 96 100 100 78 54 51 54 52 51 55 58 62 66 67 70 72 71 69 65 62 62 63 66 70 71 69 66 63 64 67 56 38 36 44 46 38 25 15 12 14 18 24 29 30 30 31 30 27 25 24 24 25 25 23 21 19 17 17 19 24 30 36 40 44
100 100 100 101 101 100 101 101 101 101 100 101 101 100 100 100 100 101 101 101 98 98 104 95 71 58 61 62 59 60 64 68 73 74 76 78 79 78 76 73 69 67 66 67 71 73 74 72 67 64 67 63 47 37 43 49 43 29 18 13 15 21 27 32 33 32 31 30 29 27 26 26 27 27 26 25 24 21 19 18 18 20 24 27 31
91 96 99 101 101 101 101 101 101 101 100 101 101 100 100 100 101 101 101 100 99 102 103 89 70 66 69 68 67 68 71 78 83 84 85 86 86 85 82 79 77 74 72 72 73 76 77 77 72 66 65 66 56 41 41 52 49 34 21 14 16 24 32 34 35 34 32 31 29 27 27 29 31 31 29 28 28 26 24 22 19 18 18 19 21
81 89 95 100 102 102 101 100 101 101 101 101 101 101 101 100 101 101 101 101 101 104 101 87 76 75 76 75 76 75 79 88 93 93 93 93 92 91 88 85 84 81 79 79 79 80 81 79 76 69 63 63 60 46 41 53 55 40 25 17 17 26 35 38 36 34 32 31 31 30 31 35 38 37 33 31 31 31 29 26 23 21 20 19 18
76 85 93 98 100 103 103 103 102 102 101 101 101 101 101 101 101 102 102 100 101 104 101 91 85 86 86 84 83 83 90 99 100 98 98 97 97 96 93 90 89 86 85 86 85 85 84 82 79 73 64 60 60 51 43 52 60 48 30 21 19 26 37 40 37 35 34 34 36 37 37 40 43 42 37 33 31 31 31 29 27 25 23 22 20
71 78 85 89 93 98 102 102 103 103 102 101 102 102 101 101 102 103 101 101 103 106 102 97 96 97 95 93 93 95 101 105 102 100 100 100 99 99 97 96 93 90 89 91 91 90 89 85 81 76 66 59 57 53 45 51 62 55 36 25 21 25 35 42 40 40 39 38 42 46 49 51 50 47 43 38 35 33 31 30 29 29 29 28 25
64 69 74 78 83 89 96 99 100 102 101 100 102 103 101 101 102 102 102 103 105 106 104 104 105 106 105 103 103 104 105 103 102 104 103 100 100 101 100 99 97 95 93 94 95 95 92 88 82 76 68 59 56 54 47 49 63 63 46 31 25 24 34 43 44 43 43 46 54 63 67 66 61 54 49 45 42 41 39 37 36 36 35 34 32
64 69 72 73 74 77 82 87 91 93 94 95 99 102 102 101 101 102 103 105 107 107 107 106 106 106 106 106 104 103 102 101 102 104 102 99 100 102 103 102 100 98 96 96 97 95 92 87 80 72 66 59 55 56 49 47 61 70 58 39 28 26 35 45 46 46 51 58 68 76 79 77 71 64 58 54 54 57 57 55 52 48 43 39 36
69 71 70 68 66 65 67 72 79 85 89 94 101 104 103 102 103 104 105 105 105 104 103 102 102 102 103 103 102 101 101 102 103 103 101 100 102 104 104 104 102 99 97 96 96 92 86 81 74 67 63 58 55 57 53 49 58 70 69 52 34 28 38 49 49 49 56 69 79 86 89 86 79 73 69 68 70 73 74 70 65 58 51 44 39
72 72 69 65 62 62 64 70 77 84 89 97 104 106 105 104 103 103 103 102 101 103 103 102 103 103 102 103 102 101 102 103 103 102 102 103 105 105 104 104 102 99 96 93 90 85 79 72 66 60 57 55 55 57 57 52 54 64 71 63 43 32 39 50 53 55 64 79 92 98 98 92 85 80 77 77 78 81 80 75 68 59 52 45 40
75 73 70 67 65 66 69 73 80 87 95 101 105 104 103 103 101 102 104 104 104 106 106 104 104 104 102 102 101 102 104 104 103 104 106 107 107 106 104 102 99 94 90 85 80 75 70 65 59 56 53 52 55 60 61 55 50 57 71 71 55 38 35 43 55 65 75 87 98 103 101 95 89 86 83 82 84 85 82 74 64 56 50 46 43
80 77 75 74 75 76 80 85 92 98 103 106 106 105 104 104 104 106 107 106 105 104 103 102 103 103 103 102 102 103 105 106 106 107 108 107 106 104 100 95 91 85 80 74 68 64 61 57 55 53 51 50 54 61 64 58 49 55 72 79 66 47 35 38 53 69 82 95 103 103 100 95 91 88 88 91 93 90 80 70 61 55 50 47 46
86 85 83 83 86 91 96 101 104 104 104 104 106 108 108 106 105 105 104 103 104 104 103 101 101 102 103 104 106 107 108 108 107 106 104 101 98 95 89 83 77 70 64 60 56 53 52 51 52 52 53 53 54 58 65 62 52 55 72 83 75 57 40 37 49 66 83 99 105 103 102 100 94 88 87 92 96 93 81 70 64 59 54 52 53
Wind_Speed
52 52 52 52 52 52 52 52 53 53 54 54 54 54 54 55 55 55 55 55 55 55 56 56 56 56 57 59 60 63 66 69 73 76 79 82 85 88 91 92 92 92 91 90 90 90 88 87 87 86 85 82 79 76 77 77 78 77 67 60 62 62 61 62 63 63 62 62 60 59 60 60 60 59 59 59 59 59 60 61 63 63 64 63 63
52 52 52 52 52 52 53 53 53 54 54 54 54 54 54 54 54 54 54 54 53 53 53 53 54 54 55 56 56 58 60 62 66 71 76 80 84 87 90 92 93 93 93 92 92 91 91 90 88 88 87 85 83 79 78 79 80 81 76 67 63 63 62 61 63 64 63 63 61 60 60 60 61 61 61 62 61 60 59 60 61 63 64 64 64
52 52 52 53 53 53 53 54 54 54 54 54 54 53 53 53 53 53 52 52 52 52 52 52 52 53 53 54 54 55 56 57 59 62 67 72 78 84 88 92 94 95 94 94 93 92 92 93 91 89 88 87 86 84 81 80 81 84 84 77 68 65 65 64 65 66 64 64 64 64 63 63 63 63 62 63 63 62 60 60 60 61 62 63 63
52 52 52 53 53 54 54 54 54 54 54 53 53 53 52 52 52 52 51 51 51 51 51 52 52 53 53 54 54 54 54 55 55 56 58 62 67 74 81 87 92 95 96 95 95 94 93 94 94 92 90 88 88 87 85 83 82 84 87 85 77 71 71 70 69 68 67 67 68 68 67 68 68 64 62 63 64 64 63 61 61 60 60 61 62
51 52 52 52 53 54 54 54 54 53 53 52 52 52 52 52 51 51 51 51 51 51 52 52 52 53 53 54 54 54 54 55 55 54 55 56 58 63 69 77 84 90 94 96 95 95 94 94 95 94 92 90 88 88 87 86 84 85 86 85 79 75 74 74 73 71 71 72 72 72 71 72 71 68 66 67 66 66 66 65 63 62 60 60 61
50 51 51 52 53 53 53 53 53 52 53 52 52 51 51 51 51 51 51 51 51 51 52 53 53 53 54 54 54 54 54 55 55 55 54 54 54 56 60 65 72 79 86 91 93 93 94 94 95 95 95 92 90 89 88 88 87 86 87 86 81 77 75 76 77 75 73 74 75 75 75 73 73 72 72 72 70 69 69 69 67 65 63 62 62
50 50 51 52 52 52 52 52 52 52 52 53 53 52 51 51 52 52 52 52 52 52 53 53 53 54 54 55 55 54 54 54 55 56 55 55 53 53 55 57 62 69 75 81 86 89 90 91 93 95 95 94 92 90 89 89 89 88 88 89 88 84 80 78 80 79 76 76 76 76 76 75 74 76 76 76 75 72 70 71 70 67 66 65 65
50 51 52 53 52 52 52 52 52 52 52 53 53 53 52 52 52 52 53 53 53 53 53 53 54 54 55 55 55 55 55 55 54 55 55 55 55 53 53 54 55 60 65 71 76 82 85 87 89 91 94 94 93 91 90 90 91 91 91 91 92 91 87 82 81 80 80 80 80 79 78 76 75 77 79 79 77 74 72 71 71 69 68 67 67
51 51 52 53 53 53 53 52 52 53 53 53 54 54 53 53 53 53 53 54 54 54 54 54 54 55 55 55 56 56 56 55 55 55 55 55 55 54 54 54 53 54 58 63 67 72 77 81 84 87 90 93 93 91 91 90 91 93 94 93 93 94 92 89 85 82 82 83 83 83 83 80 77 77 79 79 77 74 73 72 72 72 71 69 68
52 52 52 53 53 53 53 53 53 53 53 53 54 54 54 54 54 54 54 55 55 55 55 55 55 55 56 56 56 57 56 56 56 56 56 55 55 54 54 54 53 53 53 57 61 64 68 73 78 82 85 89 92 92 91 90 91 93 95 96 96 96 96 95 91 86 84 86 86 87 88 84 80 79 79 80 79 75 73 73 73 74 74 73 72
52 52 52 52 53 53 54 54 54 54 53 54 55 55 55 55 55 56 56 56 56 56 56 56 56 56 56 56 57 57 57 57 57 57 57 56 55 54 54 53 53 53 52 53 57 60 62 65 69 76 81 84 88 90 90 90 91 92 95 97 98 98 98 98 96 91 87 88 88 88 88 84 81 80 79 79 79 78 76 75 74 74 74 74 75
52 53 52 52 53 54 54 54 54 54 54 54 55 56 56 56 56 57 57 57 57 57 58 58 58 57 57 57 58 58 58 58 58 57 57 57 57 56 55 54 53 53 52 52 53 57 60 61 62 67 75 80 84 87 89 90 91 92 94 98 99 99 99 99 98 96 93 90 90 88 86 83 80 80 80 79 77 77 77 76 76 76 75 75 76
52 53 52 52 53 54 55 55 55 55 54 55 55 56 57 57 57 58 58 58 58 58 59 59 59 59 59 59 59 59 59 59 59 58 58 58 58 58 57 56 55 54 53 52 51 53 57 60 60 61 67 75 80 83 86 87 90 92 93 97 100 101 101 99 98 98 98 95 93 91 88 85 82 79 79 79 77 76 76 76 76 77 76 75 75
52 53 53 53 54 55 56 55 55 55 55 55 56 57 57 58 58 58 58 59 59 59 59 60 60 60 60 60 60 60 60 60 60 59 59 59 59 59 59 58 57 56 55 54 52 52 54 59 61 60 61 67 75 81 83 85 87 90 93 95 99 102 103 102 101 100 100 100 98 94 90 88 86 82 80 79 77 75 75 74 76 76 74 73 74
54 54 54 54 55 56 56 56 56 56 55 55 56 57 58 58 59 59 59 59 60 60 60 61 61 62 62 62 62 62 62 62 61 61 60 60 60 60 60 60 59 58 56 55 54 52 53 55 60 62 61 62 69 77 82 83 85 88 91 94 97 101 104 105 106 104 102 102 102 98 92 90 91 88 85 85 83 79 77 76 76 76 75 74 74
55 55 55 56 56 57 57 57 57 57 56 56 57 58 59 59 59 59 60 60 61 61 61 61 62 63 63 63 63 63 63 63 63 62 62 61 62 61 61 61 61 60 59 57 56 54 53 54 57 61 63 62 63 71 79 83 84 86 89 92 95 99 103 106 109 110 107 103 102 101 95 91 93 93 90 89 90 90 88 86 84 82 80 78 78
57 57 57 58 58 58 58 58 58 58 57 57 58 59 60 60 60 60 61 61 61 62 62 63 63 64 64 64 64 64 65 65 64 64 63 63 63 63 63 62 62 62 61 60 58 56 55 55 55 58 63 64 63 65 73 81 85 86 87 91 93 96 101 105 109 112 112 109 105 101 97 92 93 96 93 89 88 90 91 91 91 90 87 85 84
59 59 59 59 60 60 60 59 59 59 59 59 60 60 61 61 61 61 62 62 63 63 63 64 64 65 65 65 66 66 66 67 66 65 65 65 65 65 64 63 63 63 62 62 61 59 57 56 56 57 60 64 66 65 68 76 84 86 87 90 93 95 97 102 107 111 113 114 111 106 99 94 92 96 98 93 87 86 87 89 90 91 91 90 89
61 60 60 61 61 62 62 61 60 59 60 60 61 61 61 61 62 62 63 63 64 64 64 65 65 66 66 67 67 68 69 68 67 66 66 66 66 66 65 64 64 63 63 63 62 61 59 57 57 57 59 62 66 67 67 71 79 85 88 89 92 95 96 98 103 108 112 114 115 112 104 97 93 94 99 99 92 88 88 90 91 90 91 91 91
62 61 61 62 63 63 63 62 61 60 61 61 62 62 62 62 63 63 64 65 65 65 65 65 66 67 67 67 68 70 70 69 68 68 68 68 67 66 65 65 64 63 63 63 63 62 61 60 58 58 59 61 64 67 69 70 74 82 87 89 91 95 97 97 98 103 108 111 114 115 110 103 97 94 96 98 96 93 91 92 93 91 90 89 89
64 62 62 63 64 65 64 63 62 61 62 62 62 63 63 64 64 65 65 66 66 66 66 66 67 68 68 68 70 71 71 69 69 69 69 68 67 66 65 64 64 64 63 63 63 62 62 61 61 59 58 60 62 66 69 71 72 77 84 89 91 94 97 99 99 99 102 107 111 114 114 110 103 98 94 94 94 95 95 95 95 93 91 90 89
64 63 63 64 65 65 65 65 63 62 62 63 63 64 64 65 65 66 67 67 67 66 66 66 67 68 68 69 72 72 71 69 69 70 69 68 67 65 64 64 63 63 63 63 62 62 62 61 61 61 59 59 60 63 68 71 72 74 80 86 90 93 96 100 101 100 99 102 106 110 113 113 110 105 100 95 93 94 96 97 98 97 95 93 92
64 63 63 65 66 66 67 66 64 64 63 63 64 64 65 65 66 67 67 67 67 66 66 67 67 68 69 70 73 72 70 69 70 70 68 67 66 64 64 63 63 63 63 62 62 61 62 61 61 61 59 58 59 61 65 69 72 73 77 83 88 91 94 98 102 103 101 100 102 105 108 112 112 110 108 104 98 95 95 97 99 100 99 97 95
63 63 64 66 66 67 68 67 66 65 64 64 65 65 66 66 67 68 68 67 67 66 66 67 68 68 69 71 73 72 69 68 69 68 67 66 65 64 63 63 62 62 62 62 61 61 61 60 61 60 58 57 57 58 62 67 71 72 74 79 85 89 93 96 100 104 104 102 101 102 103 106 109 110 109 109 106 100 97 97 98 99 100 99 97
63 64 65 66 67 68 69 68 67 66 65 65 66 66 67 67 68 68 68 68 67 66 67 67 68 69 70 73 73 71 68 67 67 66 66 66 65 64 63 62 62 61 61 61 61 60 59 58 59 59 57 56 55 55 58 63 68 71 73 76 82 86 90 94 97 101 105 105 103 102 101 102 104 105 105 106 107 105 102 100 99 98 99 100 99
63 65 65 67 69 70 70 69 68 67 67 66 67 67 68 68 69 69 69 68 67 67 67 68 69 69 71 74 73 69 66 66 65 64 64 64 63 63 61 61 61 60 59 59 58 58 57 57 58 57 55 54 53 53 54 57 64 69 71 74 78 83 87 91 95 98 102 106 106 104 102 101 101 101 102 102 103 105 104 103 102 100 99 101 102
64 65 66 68 70 70 70 69 69 68 68 68 67 68 69 69 70 70 69 68 67 67 68 68 69 70 72 74 71 67 65 64 63 62 62 61 61 60 59 58 58 57 57 56 55 54 54 56 56 55 54 53 52 52 52 53 58 64 69 71 75 80 84 88 92 95 98 103 106 106 105 103 102 100 100 101 102 104 104 103 102 101 99 99 102
65 66 68 70 70 70 69 69 69 69 69 68 68 69 70 71 71 70 69 68 67 67 68 69 69 70 73 74 69 65 63 62 61 60 60 59 58 57 56 55 55 54 54 53 52 52 53 54 54 53 53 52 50 50 51 51 53 58 64 68 72 77 81 84 88 92 95 99 102 106 106 105 104 103 101 100 101 103 103 102 101 101 100 98 99
67 68 70 71 71 70 70 70 70 70 70 69 69 70 71 71 71 70 69 68 67 68 68 69 69 71 74 72 67 62 61 60 59 58 58 57 56 55 54 53 53 53 52 52 51 51 51 51 52 51 51 50 49 49 50 50 51 54 59 64 68 72 77 81 84 88 92 95 98 102 105 105 104 103 103 102 101 101 101 99 98 100 101 101 99
70 71 72 72 71 71 70 71 71 70 70 69 70 71 71 71 70 70 68 67 67 68 69 69 70 73 73 70 64 61 59 58 57 56 56 55 55 53 52 51 52 52 51 51 50 49 49 49 49 50 49 49 48 48 49 50 50 52 56 60 64 68 72 77 80 84 88 92 95 98 102 104 104 103 103 103 103 102 101 99 97 97 99 101 102
73 74 73 72 71 71 71 71 70 70 70 70 71 72 72 71 70 69 68 67 68 69 69 69 71 73 72 67 62 59 58 56 56 55 54 54 54 53 52 51 50 50 49 49 47 47 47 47 47 47 48 48 47 47 48 49 50 51 54 57 60 64 68 72 76 79 83 87 91 94 97 100 103 104 103 102 103 104 103 102 100 97 97 98 100
74 73 72 71 71 71 70 70 70 70 71 72 73 73 72 71 70 68 67 68 69 70 69 70 73 73 70 64 60 58 56 55 55 54 53 53 53 52 51 50 50 49 48 47 47 46 46 47 46 46 46 46 47 47 48 48 49 50 52 55 58 61 64 67 71 74 78 81 86 90 94 97 99 102 103 103 103 103 103 104 103 101 99 98 98
73 72 72 71 71 71 71 71 71 72 73 74 74 73 73 71 69 68 68 69 70 70 70 72 74 72 68 62 59 56 55 54 54 53 52 53 53 52 51 50 49 48 48 47 47 47 47 46 46 45 45 45 46 47 48 48 48 49 51 54 57 58 61 63 66 69 73 77 80 85 89 93 96 99 101 103 103 103 103 104 105 105 103 101 99
73 73 73 72 72 73 73 73 74 74 74 74 74 73 71 69 68 69 70 70 70 70 71 73 74 71 65 61 58 56 54 54 53 52 52 52 52 52 51 51 50 49 48 48 48 48 47 47 46 45 44 44 45 47 47 47 47 48 50 53 56 57 58 60 63 65 69 72 75 79 83 87 92 95 98 100 102 103 104 104 104 105 105 104 103
75 75 74 74 74 75 75 75 75 75 74 73 72 71 69 69 69 70 70 70 70 71 73 74 72 68 63 59 57 55 54 53 53 52 52 52 52 52 51 51 50 50 50 49 49 49 48 47 46 45 43 43 45 46 47 46 46 47 49 51 54 56 57 58 60 63 65 68 71 74 77 81 86 90 93 97 99 101 103 104 104 104 104 104 104
76 75 75 75 75 76 76 76 75 74 73 72 71 70 69 70 70 70 70 71 71 72 73 73 70 66 61 58 56 55 53 53 52 52 52 52 52 52 52 52 51 51 51 50 50 50 49 48 47 45 43 43 44 46 46 46 46 46 48 49 52 55 56 57 58 60 63 65 68 70 73 76 79 83 87 91 95 98 100 102 103 103 104 104 104
76 76 76 76 76 76 76 75 74 72 71 71 70 70 71 71 70 70 71 71 72 73 73 71 68 63 59 57 56 54 53 53 52 52 52 53 53 53 53 53 52 52 52 51 51 50 50 49 47 46 44 43 43 45 46 45 45 46 47 48 50 53 56 56 57 59 60 62 65 67 69 71 74 77 80 85 89 94 97 99 101 102 104 105 104
77 77 77 77 76 76 75 74 73 72 72 72 71 71 71 71 70 71 71 71 72 73 72 69 65 60 57 56 55 54 53 52 52 52 53 53 53 53 53 53 53 53 52 52 51 51 51 50 48 46 44 43 43 45 45 45 44 45 46 47 49 52 54 55 56 57 59 60 62 64 66 68 70 72 75 78 82 87 91 95 98 101 102 103 103
78 78 78 78 77 77 76 75 74 74 73 73 72 72 71 71 70 70 71 72 72 72 70 66 62 58 57 56 55 54 53 53 52 52 53 53 54 54 54 54 54 53 53 52 52 51 51 50 49 47 45 43 43 44 45 44 44 44 45 46 48 50 52 54 55 56 58 59 60 62 63 65 67 69 70 72 75 79 83 88 92 97 99 101 102
78 79 79 79 79 78 77 76 75 75 74 73 73 72 71 70 70 71 71 72 72 70 67 63 59 57 56 56 55 54 53 53 53 53 53 54 55 55 55 55 55 54 54 53 52 51 50 50 49 48 46 44 43 43 44 44 43 43 44 46 47 49 51 53 54 55 56 58 59 59 60 62 64 66 67 68 71 74 77 80 85 89 92 96 100
77 78 79 79 79 78 77 77 76 75 75 74 73 72 71 70 71 72 72 72 69 67 63 60 57 56 56 55 55 54 54 54 54 54 54 55 56 56 56 56 55 55 54 53 53 51 50 49 49 48 47 45 43 43 43 43 42 42 43 45 47 48 50 52 54 55 55 56 57 58 58 59 62 63 64 66 68 70 73 75 78 81 84 88 93
77 78 78 78 78 78 77 77 76 76 75 74 73 72 71 71 72 72 72 69 66 63 60 57 56 56 55 55 55 55 55 55 55 55 56 56 57 58 57 57 56 55 54 54 53 51 50 49 48 48 47 46 44 43 42 43 42 41 42 44 47 48 50 51 53 53 54 54 54 55 56 57 59 61 63 65 66 68 70 71 73 74 77 80 85
78 78 78 78 78 77 77 76 76 75 74 74 73 72 72 73 72 71 68 64 61 59 57 56 56 55 55 55 56 56 57 57 57 57 58 58 59 59 59 58 57 56 55 54 53 52 50 49 48 47 47 46 44 43 42 42 42 41 41 43 46 48 50 51 51 51 51 51 52 53 55 56 58 60 61 63 64 65 66 67 68 70 72 75 79
79 78 78 77 76 75 75 74 74 74 74 74 74 74 73 72 69 66 62 60 58 57 56 56 56 56 56 56 56 57 58 58 59 59 60 60 61 61 60 60 58 57 55 54 53 52 50 49 48 47 46 46 44 43 42 42 42 41 41 42 45 48 50 50 50 49 49 50 51 52 53 55 56 58 59 60 61 62 63 64 65 66 68 71 73
78 77 77 76 74 73 73 72 72 73 73 74 73 71 69 65 62 60 58 57 56 56 56 56 56 56 57 57 57 58 59 60 61 62 62 62 62 62 62 61 59 58 56 54 53 52 51 49 48 47 46 46 44 43 43 43 42 42 41 42 44 47 49 49 49 49 48 49 50 50 52 53 55 56 57 57 58 59 60 61 62 63 65 67 69
77 75 75 74 73 72 71 71 71 71 70 69 67 64 62 59 58 57 56 56 55 55 56 56 57 57 58 58 59 60 61 62 63 64 64 64 64 64 63 62 60 58 57 55 53 52 51 49 48 47 46 46 45 43 43 43 43 43 42 42 43 45 48 49 49 48 48 48 49 50 51 52 53 54 55 55 56 57 57 58 59 61 62 63 64
75 73 73 72 71 70 69 67 66 65 64 62 60 59 58 57 56 56 56 56 56 56 57 57 58 58 59 60 61 62 63 64 65 65 66 65 65 64 63 62 61 59 57 55 54 52 51 50 48 47 46 45 45 44 43 44 44 44 43 42 41 43 46 48 48 48 48 48 48 49 50 51 52 53 54 54 55 56 56 56 57 58 59 59 60
73 72 71 70 68 67 66 64 63 61 60 59 58 58 58 58 57 57 57 57 57 58 58 59 60 61 61 62 63 64 65 65 66 66 67 66 66 65 64 62 61 60 58 56 54 53 52 50 48 47 46 45 44 44 43 44 45 46 44 42 40 42 45 47 47 47 48 48 47 48 49 50 51 52 53 54 54 54 55 55 55 56 56 56 57
72 70 69 68 66 65 63 62 61 60 59 58 58 59 59 59 59 58 58 58 59 59 60 61 62 63 64 65 65 66 66 67 67 67 67 66 66 65 63 62 62 60 58 57 55 54 53 51 49 47 46 45 44 43 44 45 46 46 45 42 40 41 44 46 46 46 47 47 47 48 48 49 49 50 51 52 52 53 53 53 53 53 53 54 54
71 69 68 66 65 64 63 62 61 61 61 60 60 61 61 60 60 60 60 60 61 62 63 64 65 65 66 66 67 67 68 68 67 67 66 66 65 64 63 62 62 61 60 59 57 55 54 52 50 48 46 44 43 43 45 45 45 46 45 43 42 41 42 43 45 46 46 47 47 48 48 48 48 48 49 50 51 52 52 51 51 51 51 52 52
70 68 67 66 65 64 63 63 62 62 62 62 62 62 62 62 62 62 62 63 64 64 65 65 66 67 68 68 69 69 68 68 67 67 66 65 64 64 63 63 62 62 61 60 59 57 55 53 51 49 47 45 43 43 44 45 45 45 45 45 43 41 40 41 44 46 46 47 47 47 46 46 46 47 48 49 50 50 50 50 50 50 50 50 50
Wind_Direction
305 305 304 303 303 302 301 301 301 301 301 301 301 301 300 300 299 298 297 296 294 293 292 291 290 289 288 287 284 281 278 275 272 270 267 265 263 261 260 258 256 254 252 251 249 249 248 247 248 249 247 244 241 237 235 232 229 228 229 232 236 238 241 241 240 239 237 236 237 238 240 240 240 239 238 238 238 237 238 238 238 238 237 237 236
307 306 305 304 303 302 302 302 302 303 303 303 304 304 304 303 303 302 301 300 299 298 297 296 296 295 294 292 290 288 284 280 276 272 268 265 262 260 259 258 257 255 253 251 249 248 247 246 246 247 247 245 242 239 235 232 230 228 226 228 232 234 238 241 242 240 237 235 236 237 240 241 241 242 241 238 237 237 236 236 236 236 236 236 236
307 306 305 304 304 303 303 304 304 305 305 306 306 307 307 306 306 305 304 303 303 303 302 302 302 302 301 300 298 295 292 289 284 279 273 269 264 261 258 257 256 255 253 252 250 248 246 246 245 244 245 245 243 240 237 234 231 229 227 227 230 234 235 238 241 241 239 236 235 235 236 238 238 239 240 240 237 236 235 234 233 233 234 234 235
307 306 306 305 305 305 305 305 306 306 307 307 308 308 308 308 307 307 307 307 307 307 307 307 308 308 308 307 305 303 301 298 295 291 284 278 271 266 261 258 256 255 253 252 250 248 246 245 245 243 243 243 243 241 238 235 232 230 229 228 230 233 235 237 238 240 240 239 238 236 234 235 237 236 237 239 238 235 234 233 232 232 233 233 233
307 306 306 305 306 306 306 306 307 307 307 308 308 309 309 309 309 309 309 309 309 310 310 311 312 312 312 312 310 309 307 305 303 301 297 291 283 275 268 263 259 256 254 253 251 249 247 244 243 243 242 241 241 240 238 236 233 230 229 228 227 228 231 235 236 238 240 241 241 240 238 237 237 238 237 238 237 236 234 233 233 232 233 233 233
307 306 306 306 306 307 307 307 307 307 308 308 308 309 309 310 310 310 310 311 311 311 312 313 313 314 314 313 312 311 309 308 307 306 304 300 294 286 279 271 265 260 257 255 253 250 248 245 243 242 241 240 239 239 238 236 233 231 228 226 224 224 226 231 234 236 238 240 240 240 240 239 238 238 239 238 237 236 235 233 233 232 232 233 233
307 307 307 307 307 307 307 307 307 308 308 308 309 309 310 310 310 311 311 312 312 312 312 313 314 314 314 314 313 311 310 308 308 308 307 306 302 296 289 282 274 267 261 258 256 253 250 247 244 242 241 240 238 237 237 236 233 231 229 227 225 225 226 228 232 234 235 238 240 239 238 238 236 236 237 238 238 237 235 233 232 231 230 230 231
308 307 307 308 308 307 307 307 307 308 308 308 308 309 309 310 311 311 311 312 312 312 312 313 313 314 314 314 313 311 310 308 307 307 307 307 305 302 298 292 284 275 268 263 259 257 253 249 246 243 241 239 238 236 236 235 233 231 229 227 226 227 227 226 228 231 232 234 238 238 237 236 234 233 235 236 237 236 234 231 230 230 229 228 228
308 308 308 308 308 308 308 308 308 308 308 307 307 308 309 310 310 311 311 312 312 312 313 312 313 313 313 313 312 311 310 308 306 306 305 306 306 304 302 299 294 287 276 268 264 261 258 253 248 244 242 240 238 236 234 234 233 231 229 228 226 225 227 226 226 229 231 232 234 237 237 236 233 231 232 233 233 233 233 231 229 228 228 228 227
308 308 308 308 308 308 308 308 308 308 308 307 307 308 309 309 310 310 311 311 312 312 312 312 312 312 312 312 312 311 310 308 306 305 304 304 304 304 303 301 299 295 287 277 269 265 262 259 252 247 243 241 239 237 234 233 232 231 229 228 226 225 225 225 225 226 229 231 232 235 236 234 231 228 228 230 230 229 230 231 230 229 228 228 228
308 309 309 308 308 308 308 308 308 308 308 308 308 308 308 309 309 310 310 311 311 311 312 312 311 311 311 311 311 310 309 308 306 305 304 303 303 303 302 301 300 298 294 287 276 269 265 263 259 251 245 241 239 238 236 233 231 230 229 228 227 226 225 225 225 225 228 230 230 232 233 231 230 228 228 229 229 228 227 228 230 231 230 229 229
309 309 309 308 307 307 308 308 308 308 309 308 308 308 308 308 308 309 309 310 310 310 311 311 311 311 311 311 311 310 309 308 306 305 303 303 302 302 302 300 299 298 296 292 285 276 269 266 263 258 250 243 239 238 237 234 231 230 229 228 227 226 225 225 226 225 226 229 229 229 230 230 229 230 230 229 229 228 226 226 228 231 231 230 229
309 309 309 308 307 307 308 308 308 308 308 308 308 307 307 307 307 308 308 308 309 309 310 311 311 311 311 311 310 310 309 307 306 304 303 302 301 301 301 300 299 298 296 294 290 282 274 268 265 262 256 248 241 238 237 236 233 230 228 228 227 227 225 224 225 225 225 228 229 229 230 230 228 228 229 228 227 227 226 225 226 228 230 230 229
309 310 310 308 307 307 308 308 308 308 308 308 307 307 306 307 307 307 307 307 308 308 309 310 310 310 310 311 310 310 309 307 305 304 302 301 300 300 300 299 298 297 296 294 292 287 279 271 266 264 260 253 246 240 237 236 234 231 229 227 226 226 225 223 223 224 224 225 229 230 230 229 228 227 228 227 226 226 227 226 225 226 228 229 229
309 310 310 308 307 307 307 307 308 308 308 308 307 306 306 307 307 307 307 307 307 308 308 309 309 310 310 311 310 310 309 307 305 303 301 300 299 299 298 298 297 296 295 294 293 290 284 275 268 264 262 258 251 244 238 236 234 233 230 229 227 226 226 224 223 224 224 224 227 230 230 229 228 226 226 228 229 228 228 227 225 226 229 231 231
309 310 309 308 307 307 307 307 308 308 308 308 307 306 306 307 307 306 306 307 307 307 308 308 309 310 310 311 310 310 309 307 305 303 301 300 299 298 297 296 295 295 294 293 292 291 287 281 272 266 262 260 255 248 242 237 234 233 231 230 228 226 226 225 224 225 226 225 225 228 230 229 228 227 225 226 229 231 232 233 233 232 232 234 235
309 310 309 309 308 307 307 307 308 309 309 308 307 307 307 307 307 307 307 307 306 307 307 308 309 310 310 310 310 310 309 307 305 303 301 300 299 297 296 295 294 293 292 291 291 290 288 285 278 269 263 260 257 252 246 240 236 233 231 230 229 228 227 226 225 225 227 228 227 227 229 229 229 228 226 226 227 229 232 235 236 236 237 238 238
310 310 309 309 309 308 308 308 308 309 309 308 307 307 307 307 307 307 307 307 306 307 307 308 309 309 310 310 310 309 308 307 305 303 302 300 299 297 295 293 292 291 290 290 289 289 288 286 282 274 266 261 257 254 249 244 239 235 232 230 229 229 228 227 226 225 226 228 229 229 230 229 229 228 227 226 227 228 230 232 233 234 236 237 238
311 311 310 309 309 308 308 308 308 308 308 308 308 308 308 307 307 307 307 307 307 307 307 308 309 309 310 310 310 309 308 307 305 304 302 301 299 297 294 292 290 289 288 288 288 288 287 287 284 278 270 263 258 255 251 247 242 237 234 231 229 228 228 227 228 227 226 227 228 230 231 230 229 229 228 227 226 226 228 231 231 231 232 233 234
311 311 309 309 308 308 308 308 308 308 307 307 308 308 308 307 307 307 307 307 307 307 307 308 308 309 310 310 310 309 308 307 305 304 303 302 299 297 294 292 290 288 287 287 287 287 287 286 286 282 273 266 260 255 252 249 244 240 236 233 230 228 227 227 227 228 228 227 227 229 231 231 229 228 228 228 227 226 227 230 230 229 229 230 229
311 310 309 307 307 308 308 308 307 307 306 307 307 307 307 307 307 307 307 307 307 307 307 308 308 309 309 309 310 309 308 306 306 305 304 302 300 297 294 291 290 288 287 286 286 286 286 286 286 284 277 269 263 257 252 250 246 242 238 235 232 230 228 227 227 227 228 228 228 229 231 232 230 229 228 229 229 227 227 228 229 229 228 229 228
310 309 307 306 306 307 308 308 307 306 306 306 307 307 307 307 307 307 307 307 307 307 307 307 308 309 309 309 310 309 307 306 306 306 304 302 300 297 294 292 290 288 287 286 286 285 285 285 285 285 279 271 266 259 253 250 247 243 239 237 234 232 229 227 227 227 227 227 228 229 230 232 232 231 229 230 231 229 228 227 228 228 228 229 229
310 308 307 306 306 307 308 308 306 305 306 306 306 306 307 307 307 307 307 307 307 307 307 307 308 308 309 309 310 309 307 306 307 306 305 303 300 297 295 292 290 289 288 287 286 286 285 284 285 285 281 275 269 261 254 249 247 245 241 237 236 234 232 229 228 228 227 226 227 228 230 231 233 232 231 231 232 231 230 228 227 227 227 229 230
309 308 307 306 307 308 308 307 306 306 306 306 306 307 307 308 307 307 307 307 307 306 306 307 308 308 309 310 310 308 306 307 307 307 305 304 302 299 296 294 292 290 289 288 287 286 284 283 285 285 281 277 271 264 256 249 246 245 242 238 236 235 234 232 229 229 229 228 227 227 228 230 231 233 233 233 233 233 231 229 228 227 226 227 228
308 307 306 306 307 308 308 308 307 306 306 306 306 307 308 308 307 307 306 306 306 305 306 307 308 308 309 310 309 307 306 307 307 307 306 305 304 301 298 295 292 291 290 289 288 287 284 283 285 285 282 278 273 266 259 251 246 244 243 240 237 235 234 233 232 230 229 230 229 227 227 228 229 231 232 233 233 233 232 231 230 229 228 227 227
307 306 306 307 308 308 308 308 307 306 306 306 306 307 308 308 307 306 306 305 305 305 306 307 308 308 309 310 309 307 307 307 307 307 307 307 306 303 300 296 294 293 291 290 288 287 285 285 286 285 283 279 272 267 263 256 248 244 242 241 238 235 234 234 233 232 231 230 230 229 228 228 228 229 231 232 232 233 233 232 231 231 231 229 227
307 306 307 307 308 308 308 308 307 306 305 305 306 307 308 307 307 306 305 304 304 304 306 307 307 308 310 310 308 306 307 307 307 307 308 308 307 305 302 298 296 295 293 291 289 288 286 287 287 285 283 279 271 267 266 262 254 247 243 241 239 236 235 234 233 233 232 231 231 231 230 229 229 229 229 230 231 232 233 232 232 231 231 231 230
306 306 307 307 307 307 307 307 306 305 304 304 305 307 307 307 306 305 304 304 303 305 306 307 307 309 310 309 307 306 306 306 306 307 308 308 308 306 303 300 298 297 296 293 292 290 289 288 287 285 284 279 271 268 267 265 259 251 245 243 241 238 236 234 233 233 233 233 232 232 232 231 230 230 229 229 230 231 232 232 231 231 230 231 231
306 306 307 307 307 306 306 305 305 304 304 304 305 306 307 306 305 304 303 303 303 305 306 306 307 309 309 308 306 305 305 305 306 307 307 308 308 307 305 302 299 298 297 295 294 292 290 289 288 287 285 279 272 269 268 267 262 255 249 244 242 240 238 236 235 234 233 234 233 233 233 233 232 231 231 230 230 230 231 231 231 231 231 231 231
306 307 307 307 306 305 305 304 304 304 304 304 305 306 306 305 304 303 303 303 304 305 305 305 307 309 309 306 304 304 304 305 305 306 307 308 308 307 306 303 300 299 297 296 294 293 291 290 290 288 285 279 273 270 269 268 265 259 252 246 243 241 239 238 236 235 234 234 234 234 234 234 234 234 232 232 232 231 231 231 231 231 231 231 231
307 307 307 306 305 305 304 304 304 304 304 305 305 305 304 303 303 302 302 303 304 304 304 305 308 309 308 305 303 303 304 304 305 306 306 307 306 306 305 303 301 300 298 297 295 294 294 293 292 289 285 279 274 271 270 268 266 261 255 249 244 241 240 239 238 237 236 235 234 234 234 235 236 236 235 234 233 233 232 231 231 231 231 231 231
307 306 306 305 305 304 304 304 304 304 304 304 304 303 303 303 302 302 302 303 304 304 304 306 308 308 306 303 301 302 303 303 304 305 305 305 305 305 304 303 302 301 299 298 296 295 295 295 294 291 286 279 275 273 271 269 266 263 258 251 246 242 240 239 239 238 237 237 235 235 234 234 235 237 237 236 235 234 234 233 232 232 231 231 231
306 306 305 304 304 304 304 303 303 303 303 303 303 302 302 302 302 302 302 303 303 303 305 307 308 307 305 301 300 301 302 302 303 304 304 304 304 304 304 303 302 301 300 298 297 296 296 296 296 293 287 280 276 274 273 271 268 264 259 253 248 244 241 239 239 239 238 238 237 236 235 235 235 236 237 238 237 236 235 234 234 233 233 232 231
306 305 304 304 304 303 303 303 303 303 302 302 302 302 302 302 302 302 302 302 303 303 305 307 307 306 303 300 299 300 301 302 303 303 303 303 303 303 303 303 302 301 300 298 297 297 297 296 296 294 289 281 276 275 274 272 269 264 259 255 250 245 242 240 239 238 238 238 238 238 237 236 235 235 236 237 239 238 237 236 235 234 234 234 233
305 305 304 303 303 302 302 303 302 302 302 301 301 301 301 301 301 302 302 302 303 304 306 307 307 304 301 298 299 299 300 301 302 302 302 302 303 303 303 302 302 301 299 298 297 296 296 296 295 295 291 283 278 276 275 273 270 265 260 256 251 247 244 241 239 238 237 238 238 238 238 238 237 237 236 236 237 238 239 238 237 236 236 235 235
305 304 304 303 302 302 302 302 302 302 301 301 301 301 301 301 301 301 301 302 303 304 306 306 305 302 299 297 298 298 299 301 301 302 302 302 302 303 302 302 301 300 299 298 297 296 295 295 294 294 292 286 279 276 275 274 272 267 261 256 252 248 245 243 241 239 237 237 237 238 238 238 238 238 238 237 237 237 238 239 239 238 238 237 237
306 305 304 303 303 303 302 302 302 302 301 301 301 301 301 301 301 301 302 302 303 304 306 305 303 300 297 297 297 298 299 300 301 301 301 302 302 302 302 302 301 300 299 297 296 296 295 294 293 292 291 287 281 276 275 275 273 269 263 258 252 248 245 243 242 240 238 237 237 237 237 238 238 238 239 239 238 237 237 238 239 239 239 239 238
306 305 304 304 303 303 303 302 302 302 301 301 301 301 301 301 301 301 302 302 303 304 305 303 301 298 296 296 297 297 298 299 300 301 301 301 302 302 301 301 301 300 299 297 296 295 294 293 292 290 289 287 281 277 275 275 274 270 264 259 253 249 246 244 242 241 239 238 237 236 236 237 237 238 239 239 240 240 239 238 239 239 240 240 240
307 306 305 304 304 304 303 303 302 302 301 301 301 301 301 301 301 301 302 302 303 304 303 301 299 296 296 296 296 297 298 299 299 300 301 301 301 301 301 301 300 300 298 297 295 294 293 292 291 289 288 286 281 277 275 274 274 271 266 259 254 249 246 244 243 241 240 238 237 236 236 236 236 237 238 239 240 241 240 240 240 240 240 240 241
307 306 305 305 304 304 303 303 302 302 302 302 301 302 302 302 301 301 302 302 303 303 301 299 297 296 295 296 296 297 298 298 299 299 300 301 301 301 301 301 300 299 298 296 295 293 292 291 290 289 287 285 281 277 274 273 273 272 267 260 254 250 247 245 244 242 240 239 238 237 237 236 236 236 236 238 239 240 240 240 240 240 240 241 241
308 306 305 305 304 304 303 303 302 302 302 302 302 302 302 302 302 302 302 302 302 301 300 298 296 295 295 295 296 296 297 298 298 299 300 300 300 300 300 300 299 298 297 296 294 292 291 290 289 288 286 284 281 277 273 272 272 271 267 261 255 250 246 244 243 243 241 240 239 238 237 236 236 235 235 235 236 237 238 239 239 240 241 241 242
308 307 305 304 304 303 303 303 303 303 302 302 302 302 302 302 302 302 302 302 301 300 298 297 296 295 295 295 296 296 297 297 298 299 300 300 300 300 300 299 298 297 296 295 293 292 290 289 288 287 285 282 280 277 273 270 270 270 266 261 256 251 247 245 243 242 242 241 239 239 238 237 236 234 234 234 235 236 237 238 238 239 240 240 241
309 308 307 306 305 305 304 304 303 303 302 302 302 302 302 302 302 301 301 301 300 299 298 297 296 295 295 295 295 296 297 298 298 299 300 299 299 299 299 298 297 296 295 293 292 291 289 288 287 285 284 281 279 276 272 269 269 268 266 260 255 251 248 246 243 242 241 241 239 238 238 237 236 235 235 234 235 236 236 237 238 238 239 240 241
310 310 309 308 308 307 306 305 304 303 302 302 302 302 302 302 302 301 301 301 300 299 298 297 296 296 295 295 296 296 297 298 298 299 299 299 299 298 298 297 296 295 294 292 291 289 288 287 286 285 283 280 277 274 270 267 266 266 264 260 255 250 248 246 244 242 240 239 239 238 238 237 237 237 236 236 236 236 237 237 237 238 239 240 241
312 312 311 311 310 309 307 306 305 304 303 303 303 304 303 303 302 302 302 301 300 299 298 297 297 296 296 296 296 297 298 298 298 299 299 299 298 298 297 297 296 294 293 291 289 288 287 286 285 283 281 279 276 273 269 265 263 263 263 260 255 251 248 246 244 242 240 238 238 238 237 237 237 237 238 238 238 238 238 237 238 238 239 239 241
313 313 313 312 311 310 309 308 307 306 306 306 306 305 304 304 303 303 302 302 301 300 299 298 298 297 297 297 297 298 298 298 298 298 298 298 298 297 297 296 295 293 292 290 288 287 286 285 283 282 280 278 275 271 268 264 261 260 260 259 256 251 247 245 244 242 240 238 237 236 237 237 237 237 238 238 238 239 239 239 239 240 241 241 242
314 314 314 313 312 311 311 310 309 309 308 308 307 306 305 305 304 304 303 302 301 300 300 299 299 298 298 298 298 298 298 298 298 298 298 298 297 297 296 295 294 292 291 289 288 286 284 283 282 280 278 275 273 270 267 263 260 258 258 258 257 252 246 244 243 241 240 238 237 236 236 236 237 237 237 237 238 238 239 240 241 242 243 244 245
315 315 314 314 313 312 312 312 311 310 310 309 308 306 305 305 305 304 304 303 302 301 301 300 299 299 299 299 298 298 298 298 298 298 297 297 297 296 295 294 293 291 290 288 287 285 284 282 280 278 276 274 271 268 265 261 258 256 256 257 256 252 246 243 241 240 239 238 237 236 236 236 236 237 237 237 238 238 240 241 243 244 246 247 248
315 315 314 314 313 313 313 312 312 311 310 309 308 306 306 306 305 305 304 303 303 302 301 301 300 300 299 299 299 298 298 298 298 297 297 297 296 295 294 293 292 291 289 288 286 285 283 281 279 277 274 272 269 266 263 260 257 255 255 255 254 251 247 243 240 239 238 237 237 236 236 236 236 236 237 237 238 239 240 242 243 245 247 248 249
315 314 314 313 313 313 312 312 311 310 310 308 307 306 306 306 306 305 304 304 303 302 302 301 300 300 300 299 299 298 298 298 297 297 296 296 295 294 293 292 291 290 289 287 286 284 282 280 278 275 273 269 266 263 261 259 256 254 253 253 253 251 248 243 239 238 237 237 236 236 236 236 237 237 236 236 237 238 240 241 243 245 247 249 250
314 314 313 313 312 312 311 311 310 310 309 308 307 306 306 306 305 304 304 303 302 302 301 301 301 300 300 299 299 299 298 298 297 297 296 295 294 293 293 291 290 289 288 287 285 283 281 279 276 273 270 267 264 260 258 258 255 252 250 250 251 251 249 244 240 237 236 236 236 236 236 237 237 237 236 236 236 237 239 240 242 244 247 249 250